Culebra, VI

11:36 PM AST on January 23, 2017 (GMT -0400)
King

Weather History for TIST - April, 2013

Change the Weather History Date:

Wednesday, April 17, 2013

  Actual Average Record
Temperature  
Mean Temperature 79 °F 81 °F  
Max Temperature 85 °F 87 °F 94 °F (1992)
Min Temperature 73 °F 74 °F 69 °F (2003)
Degree Days  
Heating Degree Days 0 0  
Month to date heating degree days 0 0  
Since 1 July heating degree days 0 0  
Cooling Degree Days 14 16  
Month to date cooling degree days 268 261  
Year to date cooling degree days 1490 1520  
Growing Degree Days 28 (Base 50)    
Moisture  
Dew Point 70 °F    
Average Humidity 73    
Maximum Humidity 87    
Minimum Humidity 58    
Precipitation  
Precipitation 0.02 in 0.09 in 4.59 in (2003)
Month to date precipitation 1.43 1.35  
Year to date precipitation 3.67 6.58  
Sea Level Pressure  
Sea Level Pressure 29.98 in    
Wind  
Wind Speed 11 mph (ESE)    
Max Wind Speed 22 mph    
Max Gust Speed 29 mph    
Visibility 10 miles    
Events Rain    
T = Trace of Precipitation, MM = Missing Value Source: NWS Daily Summary

Daily Weather History Graph

Daily Weather History Graph

Search for Another Location

Airport or City:

Trip Planner

Search our weather history database for the weather conditions in past years. The results will help you decide how hot, cold, wet, or windy it might be!

Date:

Astronomy

Apr. 17, 2013 Rise Set
Actual Time 6:01 AM AST 6:37 PM AST
Civil Twilight 5:39 AM AST 6:59 PM AST
Nautical Twilight 5:13 AM AST 7:25 PM AST
Astronomical Twilight 4:46 AM AST 7:52 PM AST
Moon 11:27 AM AST (4/17) No Moon Set
Length of Visible Light 13h 20m
Length of Day
12h 35m
Waxing Crescent, 42% of the Moon is Illuminated
Apr 17
Waxing Crescent
Apr 18
First Quarter
Apr 25
Full
May 2
Last Quarter
May 9
New

Hourly Weather History & Observations

Time (AST) Temp. Heat Index Dew Point Humidity Pressure Visibility Wind Dir Wind Speed Gust Speed Precip Events Conditions
12:53 AM 75.0 °F - 71.1 °F 87% 30.00 in 10.0 mi East 4.6 mph - 0.00 in Rain Light Rain
1:53 AM 75.0 °F - 71.1 °F 87% 29.98 in 10.0 mi East 6.9 mph - 0.00 in Rain Light Rain
3:38 AM 73.4 °F - 69.8 °F 88% 29.95 in 10.0 mi East 3.5 mph - 0.00 in Rain Light Rain
3:53 AM 75.0 °F - 69.1 °F 82% 29.96 in 10.0 mi East 6.9 mph - 0.00 in Rain Light Rain
4:53 AM 73.9 °F - 70.0 °F 87% 29.96 in 10.0 mi ESE 5.8 mph - 0.00 in Rain Light Rain
5:53 AM 73.9 °F - 69.1 °F 85% 29.97 in 10.0 mi East 6.9 mph - 0.00 in Rain Light Rain
6:53 AM 75.9 °F - 70.0 °F 82% 29.99 in 10.0 mi East 9.2 mph - 0.00 in Rain Light Rain
7:53 AM 77.0 °F - 72.0 °F 84% 30.01 in 10.0 mi SE 12.7 mph - 0.01 in Rain Light Rain
9:53 AM 81.0 °F 84.9 °F 71.1 °F 72% 30.02 in 10.0 mi SE 16.1 mph - N/A   Clear
10:53 AM 82.0 °F 85.9 °F 70.0 °F 67% 30.01 in 10.0 mi SE 13.8 mph - N/A   Partly Cloudy
11:31 AM 80.6 °F 84.6 °F 71.6 °F 74% 30.00 in 10.0 mi ESE 18.4 mph 26.5 mph N/A   Mostly Cloudy
11:40 AM 80.6 °F 83.9 °F 69.8 °F 70% 30.00 in 10.0 mi East 15.0 mph 25.3 mph N/A   Overcast
11:53 AM 82.9 °F 87.5 °F 71.1 °F 67% 30.00 in 10.0 mi East 10.4 mph - N/A   Mostly Cloudy
12:51 PM 80.6 °F 84.6 °F 71.6 °F 74% 29.99 in 10.0 mi ESE 10.4 mph - N/A   Mostly Cloudy
12:53 PM 81.0 °F 84.9 °F 71.1 °F 72% 29.99 in 10.0 mi East 12.7 mph - N/A   Mostly Cloudy
1:19 PM 82.4 °F 85.4 °F 68.0 °F 62% 29.98 in 10.0 mi East 16.1 mph 23.0 mph N/A   Mostly Cloudy
1:53 PM 80.1 °F 83.8 °F 72.0 °F 76% 29.97 in 10.0 mi ESE 13.8 mph - 0.00 in Rain Light Rain
2:53 PM 81.0 °F 84.9 °F 71.1 °F 72% 29.95 in 10.0 mi SE 16.1 mph - 0.00 in   Overcast
3:05 PM 80.6 °F 83.9 °F 69.8 °F 70% 29.95 in 10.0 mi SE 17.3 mph 24.2 mph N/A   Overcast
3:53 PM 80.1 °F 82.7 °F 68.0 °F 67% 29.95 in 10.0 mi SE 16.1 mph 26.5 mph N/A   Overcast
4:53 PM 82.9 °F 85.0 °F 66.0 °F 56% 29.95 in 10.0 mi East 16.1 mph 24.2 mph N/A   Scattered Clouds
5:53 PM 79.0 °F - 69.1 °F 72% 29.96 in 10.0 mi East 8.1 mph - N/A   Mostly Cloudy
7:53 PM 75.9 °F - 68.0 °F 76% 30.00 in 10.0 mi East 15.0 mph - N/A   Overcast
8:53 PM 75.9 °F - 68.0 °F 76% 30.01 in 10.0 mi ENE 11.5 mph 16.1 mph N/A   Overcast
10:53 PM 77.0 °F - 68.0 °F 74% 30.02 in 10.0 mi East 8.1 mph - N/A   Overcast
11:53 PM 75.9 °F - 66.9 °F 74% 30.02 in 10.0 mi East 6.9 mph - N/A   Partly Cloudy